Погода в Былыме

Россия / Кабардино-Балкарская Республика     43°27′44″N   43°02′15″E
темп.,
°C
ветер,
м/с
пор.,
м/с
влажн.,
%
обл.,
%
осадки,
мм/ч
давл.,
гПа
погр.,
м
22 января, сб
сб2200:00−10юз546669 0.0 102044
03:00−9юз666936 0.0 101956
06:00−8юз6668100 0.0 101557
09:00−6юз567144 0.0 101569
12:000ююз23866 0.0 1009203
15:00−2в128850 0.0 101194
18:00−9юз338344 0.0 101616
21:00−10юз437616 0.0 101618
23 января, вс
вс2300:00−9юз43745 0.0 101423
03:00−7юз43751 0.0 101228
06:00−7юз43735 0.0 101121
09:00−5юз43696 0.0 100938
12:000юз01875 0.0 1004103
15:00−1в0192100 0.0 100553
18:00−7юз4377100 0.0 101127
21:00−6юз447565 0.0 101132
24 января, пн
пн2400:00−6юз437399 0.0 101231
03:00−6юз3376100 0.0 101217
06:00−5юз3379100 0.0 101229
09:00−5юз337711 0.1 101434
12:00−1ююз27660 0.3 10131348
15:00−3ююв11783 0.3 101650
18:00−11юз54647 0.0 102430
21:00−10юз336510 0.0 102417
25 января, вт
вт2500:00−11ююз436784 0.0 102618
03:00−10ююз327797 0.0 102516
06:00−12юз3378100 0.0 102614
09:00−9з228598 0.1 102641
12:00−7ссв219095 0.0 1025366
15:00−7всв229395 0.1 1025244
18:00−9ю229492 0.3 102739
21:00−14юз436657 0.4 103023
26 января, ср
ср2600:00−13юз436372 0.0 102619
03:00−11юз437296 0.0 102322
06:00−12юз43746 0.0 102217
09:00−8юз33755 0.0 101832
12:00−5всв117713 0.0 1014148
15:00−6ссв119353 0.0 1014141
18:00−9юз3284100 0.0 101725
21:00−9юз4369100 0.0 101725